Location: Добрич
(43.6638°N, 27.9002°E)
Time: 05:57:24
(UTC+03:00)

ISS - Pass Details

Date: 23 April 2026
Orbit: 414 x 424 km, 51.6° (Epoch: 15 May)

Event Time Altitude Azimuth Distance (km) Brightness Sun altitude
Exits shadow 04:11:19 61° 141° (SE) 478 -3.6 -19.9°
Drops below altitude 10° 04:14:38 10° 63° (ENE) 1,503 0.2 -19.4°
Sets 04:16:45 0° 60° (ENE) 2,372 1.6 -19.2°
